This is the latest recevied weather packets stored in our database for station/object OK1FRN-6. If no packets are shown the sender has not sent any weather packets the latest 10 day(s).
| Time | Temp. | Humidity | Pressure | Rain* | Wind** | Luminosity | Snow |
|---|---|---|---|---|---|---|---|
| 1778031134 | 12.22° C | 80% | 1007.5 hPa | - | - | - | - |
| 1778030828 | 12.22° C | 80% | 1007.4 hPa | - | - | - | - |
| 1778030522 | 12.22° C | 80% | 1007.4 hPa | - | - | - | - |
| 1778030216 | 12.22° C | 80% | 1007.5 hPa | - | - | - | - |
| 1778029910 | 12.78° C | 80% | 1007.5 hPa | - | - | - | - |
| 1778029604 | 12.78° C | 80% | 1007.5 hPa | - | - | - | - |
| 1778029298 | 12.78° C | 80% | 1007.4 hPa | - | - | - | - |
| 1778028993 | 12.78° C | 80% | 1007.4 hPa | - | - | - | - |
| 1778027768 | 13.33° C | 80% | 1007.3 hPa | - | - | - | - |
| 1778027462 | 13.33° C | 80% | 1007.3 hPa | - | - | - | - |
| 1778026849 | 13.89° C | 80% | 1007.4 hPa | - | - | - | - |
| 1778026544 | 13.89° C | 80% | 1007.4 hPa | - | - | - | - |
| 1778025931 | 13.89° C | 81% | 1007.3 hPa | - | - | - | - |
| 1778025625 | 13.89° C | 81% | 1007.4 hPa | - | - | - | - |
| 1778025319 | 13.89° C | 81% | 1007.3 hPa | - | - | - | - |
| 1778025013 | 14.44° C | 82% | 1007.2 hPa | - | - | - | - |
| 1778024707 | 14.44° C | 82% | 1007.2 hPa | - | - | - | - |
| 1778024094 | 14.44° C | 81% | 1007.2 hPa | - | - | - | - |
| 1778023788 | 14.44° C | 81% | 1007.3 hPa | - | - | - | - |
| 1778023176 | 14.44° C | 81% | 1007.3 hPa | - | - | - | - |
| 1778022870 | 14.44° C | 81% | 1007.3 hPa | - | - | - | - |
| 1778022257 | 14.44° C | 81% | 1007.5 hPa | - | - | - | - |
| 1778021951 | 15° C | 81% | 1007.5 hPa | - | - | - | - |
| 1778021645 | 15° C | 82% | 1007.5 hPa | - | - | - | - |
| 1778021339 | 14.44° C | 82% | 1007.5 hPa | - | - | - | - |
* Rain since midnight (hover to see other rain measurements)
** Current wind speed in m/s (hover to see current wind gust speed)